QFA6041 VTBS-YSSY

Flight info

Callsign QFA6041
Flight time N/A
Altitude 35000
Route RYN1J RYN N891 XONAN/K0878F350 N891 IGARI/N0474F350 N891 ENREP N875 AKDAT DCT 0029S10853E 0245S11034E 0312S11054E 0712S11349E DCT BOPLO DCT 1609S11954E/N0468F370 1904S12218E 2053S12400E 2321S12640E 2553S13011E 2841S13544E 3106S14159E DCT NODEK DCT VELGI Y105 TARAL Y59 RIVET4
Aircraft A21N/M-SDE2E3FGHIRWXY/LB1

Departure

Time N/A
Airport Suvarnabhumi Airport (VTBS)

Arrival

Time 2026-04-23 22:21
Airport Sydney Kingsford Smith International Airport (YSSY)
Time Latitude Longitude Altitude Speed Heading
2026-04-23 21:52 -34.38586 149.27397 37622 ft 407 kts 135°
2026-04-23 21:56 -34.41482 149.31702 37623 ft 410 kts 127°
2026-04-23 21:56 -34.43676 149.38119 37628 ft 424 kts 108°
2026-04-23 21:57 -34.44564 149.45243 37629 ft 428 kts 104°
2026-04-23 21:57 -34.45386 149.52332 37630 ft 427 kts 104°
2026-04-23 21:58 -34.46234 149.59464 37629 ft 427 kts 104°
2026-04-23 21:58 -34.47072 149.66583 37634 ft 427 kts 104°
2026-04-23 21:58 -34.47489 149.70121 37346 ft 421 kts 104°
2026-04-23 21:59 -34.47904 149.73630 36306 ft 424 kts 104°
2026-04-23 21:59 -34.48321 149.77175 35372 ft 423 kts 104°
2026-04-23 21:59 -34.48731 149.80697 34536 ft 421 kts 104°
2026-04-23 22:00 -34.49546 149.87777 31728 ft 434 kts 101°
2026-04-23 22:00 -34.49617 149.91500 30257 ft 449 kts 89°
2026-04-23 22:00 -34.49065 149.95252 28960 ft 457 kts 77°
2026-04-23 22:00 -34.47871 149.98868 27750 ft 463 kts 66°
2026-04-23 22:01 -34.46371 150.02271 26520 ft 455 kts 64°
2026-04-23 22:01 -34.44848 150.05605 25475 ft 451 kts 64°
2026-04-23 22:01 -34.43330 150.08937 24665 ft 451 kts 63°
2026-04-23 22:01 -34.41837 150.12258 23795 ft 446 kts 64°
2026-04-23 22:02 -34.40380 150.15510 22920 ft 441 kts 64°
2026-04-23 22:02 -34.38911 150.18807 22384 ft 456 kts 64°
2026-04-23 22:02 -34.37420 150.22165 21915 ft 456 kts 64°
2026-04-23 22:02 -34.35942 150.25492 21219 ft 436 kts 64°
2026-04-23 22:03 -34.34531 150.28645 20476 ft 422 kts 64°
2026-04-23 22:03 -34.33135 150.31755 19727 ft 419 kts 63°
2026-04-23 22:03 -34.31750 150.34843 19004 ft 414 kts 64°
2026-04-23 22:03 -34.30392 150.37881 18147 ft 410 kts 64°
2026-04-23 22:04 -34.29042 150.40902 17368 ft 405 kts 64°
2026-04-23 22:04 -34.27708 150.43887 16678 ft 402 kts 64°
2026-04-23 22:04 -34.26387 150.46848 16024 ft 398 kts 64°
2026-04-23 22:04 -34.25291 150.49305 15481 ft 396 kts 64°
2026-04-23 22:05 -34.23989 150.52212 14956 ft 393 kts 63°
2026-04-23 22:05 -34.22686 150.55117 14470 ft 391 kts 64°
2026-04-23 22:05 -34.21395 150.57998 13905 ft 388 kts 64°
2026-04-23 22:05 -34.20115 150.60849 13209 ft 384 kts 63°
2026-04-23 22:06 -34.18850 150.63665 12559 ft 375 kts 63°
2026-04-23 22:06 -34.17635 150.66362 12204 ft 357 kts 63°
2026-04-23 22:06 -34.16474 150.68939 11934 ft 340 kts 63°
2026-04-23 22:06 -34.15374 150.71381 11665 ft 323 kts 64°
2026-04-23 22:07 -34.14325 150.73711 11393 ft 309 kts 64°
2026-04-23 22:07 -34.13332 150.75919 11153 ft 296 kts 64°
2026-04-23 22:07 -34.12674 150.77378 10874 ft 292 kts 64°
2026-04-23 22:07 -34.11388 150.80227 10187 ft 290 kts 63°
2026-04-23 22:08 -34.10425 150.82360 9683 ft 288 kts 63°
2026-04-23 22:08 -34.09475 150.84470 9164 ft 285 kts 63°
2026-04-23 22:08 -34.08532 150.86566 8700 ft 282 kts 63°
2026-04-23 22:08 -34.07921 150.87924 8462 ft 277 kts 63°
2026-04-23 22:09 -34.07009 150.89949 8180 ft 272 kts 63°
2026-04-23 22:09 -34.06112 150.91938 7944 ft 267 kts 63°
2026-04-23 22:09 -34.05234 150.93889 7713 ft 262 kts 63°
2026-04-23 22:09 -34.04358 150.95799 7497 ft 264 kts 59°
2026-04-23 22:10 -34.03064 150.97405 7202 ft 271 kts 36°
2026-04-23 22:10 -34.01337 150.98246 6860 ft 273 kts 14°
2026-04-23 22:10 -33.98858 150.98667 6344 ft 271 kts
2026-04-23 22:10 -33.97595 150.98837 6072 ft 269 kts
2026-04-23 22:11 -33.95771 150.99078 5679 ft 267 kts
2026-04-23 22:11 -33.93900 150.99324 5276 ft 265 kts
2026-04-23 22:11 -33.92082 150.99562 4866 ft 262 kts
2026-04-23 22:11 -33.90275 150.99801 4453 ft 259 kts
2026-04-23 22:12 -33.88494 151.00039 4046 ft 256 kts
2026-04-23 22:12 -33.86756 151.00274 3655 ft 254 kts
2026-04-23 22:12 -33.85006 151.00511 3247 ft 253 kts
2026-04-23 22:12 -33.83352 151.00735 3012 ft 246 kts
2026-04-23 22:13 -33.81775 151.00946 2962 ft 231 kts
2026-04-23 22:13 -33.80226 151.01150 2958 ft 221 kts
2026-04-23 22:13 -33.78695 151.01352 2970 ft 222 kts
2026-04-23 22:13 -33.77163 151.01554 2987 ft 222 kts
2026-04-23 22:14 -33.75644 151.01872 3004 ft 220 kts 19°
2026-04-23 22:14 -33.74355 151.02748 3048 ft 211 kts 45°
2026-04-23 22:14 -33.73630 151.04238 3061 ft 206 kts 74°
2026-04-23 22:14 -33.73547 151.05916 3039 ft 200 kts 98°
2026-04-23 22:15 -33.73815 151.07453 3044 ft 174 kts 103°
2026-04-23 22:15 -33.74065 151.08887 3038 ft 179 kts 102°
2026-04-23 22:15 -33.74318 151.10354 3017 ft 179 kts 102°
2026-04-23 22:15 -33.74679 151.11773 2983 ft 180 kts 118°
2026-04-23 22:16 -33.75671 151.12677 2985 ft 183 kts 155°
2026-04-23 22:16 -33.76909 151.13036 3015 ft 184 kts 168°
2026-04-23 22:16 -33.78160 151.13338 2937 ft 183 kts 166°
2026-04-23 22:16 -33.79404 151.13653 2748 ft 180 kts 165°
2026-04-23 22:17 -33.80575 151.13954 2531 ft 169 kts 165°
2026-04-23 22:17 -33.81675 151.14238 2312 ft 148 kts 165°
2026-04-23 22:17 -33.82579 151.14472 2089 ft 125 kts 165°
2026-04-23 22:17 -33.83414 151.14689 1920 ft 121 kts 165°
2026-04-23 22:18 -33.84239 151.14903 1777 ft 121 kts 166°
2026-04-23 22:18 -33.85063 151.15116 1619 ft 121 kts 166°
2026-04-23 22:18 -33.85888 151.15331 1457 ft 120 kts 165°
2026-04-23 22:18 -33.86702 151.15542 1296 ft 119 kts 166°
2026-04-23 22:19 -33.87513 151.15752 1146 ft 119 kts 167°
2026-04-23 22:19 -33.88319 151.15961 984 ft 120 kts 168°
2026-04-23 22:19 -33.89140 151.16179 819 ft 120 kts 166°
2026-04-23 22:19 -33.89953 151.16395 653 ft 122 kts 168°
2026-04-23 22:20 -33.90793 151.16608 479 ft 123 kts 168°
2026-04-23 22:20 -33.91623 151.16824 332 ft 125 kts 168°
2026-04-23 22:20 -33.92471 151.17038 174 ft 125 kts 170°
2026-04-23 22:20 -33.93317 151.17256 42 ft 123 kts 169°
2026-04-23 22:21 -33.94040 151.17444 24 ft 107 kts 169°
2026-04-23 22:21 -33.94545 151.17574 30 ft 44 kts 169°
2026-04-23 22:21 -33.94737 151.17594 29 ft 27 kts 240°
2026-04-23 22:21 -33.94684 151.17406 31 ft 30 kts 348°
2026-04-23 22:22 -33.94472 151.17352 32 ft 32 kts 347°
2026-04-23 22:22 -33.94248 151.17297 28 ft 34 kts 349°
2026-04-23 22:22 -33.94071 151.17252 27 ft 35 kts 347°
2026-04-23 22:22 -33.93845 151.17191 21 ft 36 kts 346°
2026-04-23 22:23 -33.93622 151.17122 26 ft 20 kts 354°
2026-04-23 22:23 -33.93483 151.17104 26 ft 16 kts 352°
2026-04-23 22:23 -33.93449 151.17126 25 ft 6 kts 49°
2026-04-23 22:23 -33.93435 151.17185 24 ft 9 kts 78°
2026-04-23 22:24 -33.93420 151.17272 21 ft 13 kts 77°
2026-04-23 22:24 -33.93400 151.17396 24 ft 18 kts 80°
2026-04-23 22:24 -33.93382 151.17494 26 ft 8 kts 75°
2026-04-23 22:24 -33.93354 151.17578 35 ft 15 kts 20°
2026-04-23 22:25 -33.93290 151.17568 35 ft 1 kts 354°
2026-04-23 22:25 -33.93261 151.17562 35 ft 7 kts 348°
2026-04-23 22:25 -33.93203 151.17546 35 ft 10 kts 347°
2026-04-23 22:25 -33.93194 151.17544 35 ft 0 kts 347°
2026-04-23 22:27 -33.93179 151.17539 35 ft 4 kts 347°
2026-04-23 22:28 -33.93136 151.17527 35 ft 8 kts 346°
2026-04-23 22:28 -33.93065 151.17525 36 ft 12 kts 19°
2026-04-23 22:28 -33.93007 151.17601 36 ft 16 kts 99°
2026-04-23 22:28 -33.92978 151.17692 36 ft 16 kts 10°
2026-04-23 22:29 -33.92862 151.17724 36 ft 19 kts 48°
2026-04-23 22:29 -33.92812 151.17831 36 ft 6 kts 83°
2026-04-23 22:29 -33.92822 151.17893 36 ft 10 kts 134°
2026-04-23 22:29 -33.92892 151.17907 36 ft 14 kts 239°
2026-04-23 22:30 -33.92902 151.17889 36 ft 3 kts 234°
2026-04-23 22:30 -33.92911 151.17874 36 ft 0 kts 235°